245  
ASUS46 KPQR 282110  
RWROR  
 
OREGON REGIONAL WEATHER ROUNDUP  
NATIONAL WEATHER SERVICE PORTLAND OR  
100 PM PST MON NOV 28 2022  
 
NOTE: "FAIR" INDICATES FEW OR NO CLOUDS BELOW 12,000 FEET WITH  
NO SIGNIFICANT WEATHER AND/OR S TO VISIBILITY
.  
 
ORZ001>013-282200-  
NORTHWEST OREGON  
 
 
CITY SKY/WX TMP DP RH WIND PRES REMARKS
 
ASTORIA MOSUNNY 43 35 73 SW5 29.92S  
TILLAMOOK LGT RAIN 41 37 87 SE3 29.97S  
NEWPORT CLOUDY 45 36 70 W6 30.01S  
FLORENCE FAIR 48 39 71 NW10 30.00S  
PORTLAND PTSUNNY 47 32 56 VRB5 29.93S  
VANCOUVER WA PTSUNNY 46 32 58 VRB5 29.94S  
SCAPPOOSE PTSUNNY 45 35 68 NW5 29.91F  
HILLSBORO PTSUNNY 41 38 89 NW5 29.93S  
AURORA CLOUDY 45 32 60 SW5 29.95S  
MCMINNVILLE CLOUDY 46 36 68 SW8 29.93F  
SALEM CLOUDY 46 33 60 W9 29.94S  
CORVALLIS MOSUNNY 45 36 70 W9 29.97S  
EUGENE PTSUNNY 45 39 79 SW9 29.97F  
CRESWELL PTSUNNY 43 37 81 N12 29.97R  

 
 
ORZ021-028-282200-  
SOUTHWEST OREGON  
 
 
CITY SKY/WX TMP DP RH WIND PRES REMARKS
 
NORTH BEND MOSUNNY 46 42 86 NE5 30.03S  
BROOKINGS MOSUNNY 47 43 86 NW8 30.04S  
ROSEBURG CLOUDY 44 36 73 CALM 29.98F  
SEXTON SUMMIT LGT SNOW 30 29 96 VRB6 29.88F VSB 3/4  
GRANTS PASS PTSUNNY 46 37 71 NW7 29.99F  
MEDFORD MOSUNNY 46 36 68 NW13 29.94F  

 
 
ORZ014>016-041-282200-  
COLUMBIA GORGE  
 
 
CITY SKY/WX TMP DP RH WIND PRES REMARKS
 
TROUTDALE PTSUNNY 47 35 63 VRB6 29.92F  
HOOD RIVER SUNNY 41 28 60 NW3 29.87R  
THE DALLES PTSUNNY 48 24 39 NW22G30 29.86S  

 
 
ORZ029>031-041-044-049-050-061>064-502-503-505>511-282200-  
EASTERN OREGON  
 
 
CITY SKY/WX TMP DP RH WIND PRES REMARKS
 
MADRAS PTSUNNY 37 21 52 W13 29.84S WCI 29  
REDMOND MOSUNNY 38 22 52 W12 29.79S WCI 30  
BEND MOSUNNY 34 19 55 NW10 29.81S WCI 26  
PRINEVILLE MOSUNNY 34 19 55 W10G18 29.79S WCI 26  
KLAMATH FALLS FLURRIES 34 29 82 NW12G25 29.80R WCI 25  
LAKEVIEW LGT SNOW 30 27 86 NW8 29.77R FOG  
HERMISTON MOSUNNY 42 29 59 N13 29.83S  
PENDLETON CLOUDY 34 29 82 N9 29.80R  
JOHN DAY CLOUDY 29 23 80 W15 29.72S WCI 17  
MEACHAM NOT AVBL  
LA GRANDE LGT RAIN 34 30 85 N10 29.69F WCI 26  
BAKER CITY PTSUNNY 30 26 85 NW3 29.67S  
BURNS CLOUDY 30 16 56 W12G21 29.70R WCI 20  
ROME N/A 31 26 82 W10 29.67F WCI 22  
ONTARIO CLOUDY 36 31 82 NW3 29.72S  

 
 
OTHER REGIONAL REPORTS  
 
CITY SKY/WX TMP DP RH WIND PRES REMARKS
 
SEATTLE PTSUNNY 39 31 72 N7 29.89F  
SPOKANE CLOUDY 26 21 81 N8 29.69S FOG  
VANCOUVER BC MOSUNNY 39 23 52 S7 29.95S  
PRINCE GEORGE MOSUNNY 16 3 57 N15 30.08F WCI 1  
DAWSON CREEK LGT SNOW 5 0 78 N8 30.27  
WHITEHORSE FLURRIES 5 -2 72 N10G18 30.30F WCI -10  
BOISE CLOUDY 34 30 85 W7 29.68S  
REDDING MOSUNNY 58 32 37 S7 29.86F  
SAN FRANCISCO PTSUNNY 59 43 55 W14G24 29.99F  
 

 
 
 
 
CLICK HERE TO GO TO PREVIOUS BULLETINS.

The Nexlab OR Page Main Text Page